GW1987 Weather Reports


Display with metric or nautical units.
time (UTC)temp
F
wind
direction
speed
MPH
gust
MPH
rain 1hr
in
rain 24hr
in
rain mn
in
humidity
%
barometer
mb
20260506215513 74 360 24.0 34.0 0.00 0.00 0.00 9 919.8
20260506215011 73 360 27.0 34.0 0.00 0.00 0.00 8 919.6
20260506214537 74 360 22.0 34.0 0.00 0.00 0.00 8 919.8
20260506214013 73 360 19.0 34.0 0.00 0.00 0.00 9 919.9
20260506213514 73 360 20.0 36.0 0.00 0.00 0.00 8 920.0
20260506213036 73 360 24.0 36.0 0.00 0.00 0.00 8 919.8
20260506212511 73 360 22.0 29.0 0.00 0.00 0.00 8 919.8
20260506212013 73 360 22.0 26.0 0.00 0.00 0.00 9 919.9
20260506211540 72 360 16.0 31.0 0.00 0.00 0.00 8 919.9
20260506211015 72 360 19.0 33.0 0.00 0.00 0.00 8 920.3
20260506210516 72 360 26.0 33.0 0.00 0.00 0.00 8 920.0
20260506210038 72 360 16.0 30.0 0.00 0.00 0.00 9 920.2
20260506205513 73 360 23.0 35.0 0.00 0.00 0.00 8 920.2
20260506205013 72 360 20.0 35.0 0.00 0.00 0.00 9 920.2
20260506204538 71 360 13.0 34.0 0.00 0.00 0.00 9 920.4
20260506204013 72 360 13.0 21.0 0.00 0.00 0.00 9 920.4
20260506203513 71 360 11.0 24.0 0.00 0.00 0.00 9 920.4
20260506203042 71 360 19.0 31.0 0.00 0.00 0.00 9 920.0
20260506202514 71 360 13.0 34.0 0.00 0.00 0.00 9 920.4
20260506202015 71 360 15.0 28.0 0.00 0.00 0.00 10 920.4
20260506201555 70 360 9.0 23.0 0.00 0.00 0.00 10 920.5
20260506201014 70 360 14.0 23.0 0.00 0.00 0.00 10 920.7
20260506200511 69 360 8.0 18.0 0.00 0.00 0.00 11 920.8
20260506200042 70 360 9.0 13.0 0.00 0.00 0.00 11 920.9
20260506195512 68 360 2.0 15.0 0.00 0.00 0.00 13 921.0
20260506195018 68 360 10.0 22.0 0.00 0.00 0.00 13 921.2
20260506194548 68 360 13.0 21.0 0.00 0.00 0.00 13 921.0
20260506194017 68 360 14.0 19.0 0.00 0.00 0.00 13 921.1
20260506193515 67 360 12.0 19.0 0.00 0.00 0.00 13 921.4
20260506193044 67 360 9.0 25.0 0.00 0.00 0.00 13 921.4
20260506192517 67 360 10.0 17.0 0.00 0.00 0.00 14 921.5
20260506192015 66 360 9.0 17.0 0.00 0.00 0.00 14 921.5
20260506191546 66 360 12.0 21.0 0.00 0.00 0.00 14 921.6
20260506191016 66 360 12.0 21.0 0.00 0.00 0.00 13 921.7
20260506190516 66 360 8.0 17.0 0.00 0.00 0.00 15 921.9
20260506190045 66 360 13.0 17.0 0.00 0.00 0.00 15 922.1
20260506185517 64 360 7.0 12.0 0.00 0.00 0.00 15 922.2
20260506185016 64 360 2.0 8.0 0.00 0.00 0.00 15 922.4
20260506184550 64 360 3.0 12.0 0.00 0.00 0.00 15 922.6
20260506184012 64 360 7.0 14.0 0.00 0.00 0.00 16 922.5
20260506183514 63 360 8.0 14.0 0.00 0.00 0.00 16 922.7
20260506183050 63 360 6.0 15.0 0.00 0.00 0.00 17 922.5
20260506182516 62 360 8.0 15.0 0.00 0.00 0.00 16 922.5
20260506182018 62 360 4.0 17.0 0.00 0.00 0.00 17 922.6
20260506181540 62 360 3.0 12.0 0.00 0.00 0.00 17 922.6
20260506181016 60 360 5.0 15.0 0.00 0.00 0.00 18 922.8
20260506180513 60 360 8.0 17.0 0.00 0.00 0.00 18 922.8
20260506180058 60 360 7.0 17.0 0.00 0.00 0.00 19 922.9
20260506175518 59 360 7.0 13.0 0.00 0.00 0.00 18 923.2
20260506175016 59 360 6.0 13.0 0.00 0.00 0.00 19 923.2
20260506174545 59 360 5.0 18.0 0.00 0.00 0.00 19 923.3
20260506174014 58 360 12.0 18.0 0.00 0.00 0.00 20 923.1
20260506173516 57 360 10.0 17.0 0.00 0.00 0.00 20 923.2
20260506173100 57 360 7.0 17.0 0.00 0.00 0.00 21 923.4
20260506172516 57 360 6.0 14.0 0.00 0.00 0.00 22 923.6
20260506172017 56 360 3.0 14.0 0.00 0.00 0.00 22 923.7
20260506171551 55 360 6.0 14.0 0.00 0.00 0.00 23 923.6
20260506171015 55 360 10.0 16.0 0.00 0.00 0.00 21 923.6
20260506170516 54 360 12.0 16.0 0.00 0.00 0.00 22 923.5
20260506170050 54 360 9.0 17.0 0.00 0.00 0.00 21 923.7
20260506165519 54 360 12.0 17.0 0.00 0.00 0.00 20 923.8
20260506165020 54 360 10.0 18.0 0.00 0.00 0.00 19 924.0
20260506164546 53 360 14.0 18.0 0.00 0.00 0.00 19 924.0
20260506164019 52 360 13.0 17.0 0.00 0.00 0.00 17 924.0
20260506163518 52 360 11.0 15.0 0.00 0.00 0.00 15 923.8
20260506163052 51 360 9.0 15.0 0.00 0.00 0.00 18 924.2
20260506162522 51 360 10.0 15.0 0.00 0.00 0.00 15 924.4
20260506162018 51 360 11.0 15.0 0.00 0.00 0.00 21 924.3
20260506161545 51 360 8.0 15.0 0.00 0.00 0.00 21 924.2
20260506161015 50 360 9.0 15.0 0.00 0.00 0.00 21 924.5
20260506160518 50 360 11.0 15.0 0.00 0.00 0.00 22 924.3
20260506160050 50 360 10.0 14.0 0.00 0.00 0.00 23 924.5
20260506155517 49 360 11.0 13.0 0.00 0.00 0.00 23 924.7
20260506155015 49 360 8.0 12.0 0.00 0.00 0.00 26 924.8
20260506154547 48 360 8.0 13.0 0.00 0.00 0.00 26 924.8
20260506154022 47 360 7.0 13.0 0.00 0.00 0.00 31 924.9
20260506153516 46 360 2.0 6.0 0.00 0.00 0.00 35 924.9
20260506153041 45 360 4.0 6.0 0.00 0.00 0.00 36 924.9
20260506152521 43 360 1.0 5.0 0.00 0.00 0.00 39 925.2
20260506152014 42 360 2.0 4.0 0.00 0.00 0.00 40 925.1
20260506151546 41 360 2.0 4.0 0.00 0.00 0.00 41 925.1
20260506151019 41 360 1.0 5.0 0.00 0.00 0.00 41 925.2
20260506150514 40 360 2.0 5.0 0.00 0.00 0.00 41 925.2
20260506150051 39 360 0.0 4.0 0.00 0.00 0.00 43 925.5
20260506145518 39 360 2.0 4.0 0.00 0.00 0.00 43 925.3
20260506145016 38 360 0.0 4.0 0.00 0.00 0.00 43 925.5
20260506144547 38 360 1.0 3.0 0.00 0.00 0.00 44 925.5
20260506144016 37 360 1.0 3.0 0.00 0.00 0.00 46 925.6
20260506143516 36 360 0.0 4.0 0.00 0.00 0.00 45 925.7
20260506143048 35 360 2.0 4.0 0.00 0.00 0.00 46 925.7
20260506142518 35 360 1.0 3.0 0.00 0.00 0.00 46 925.9
20260506142016 34 360 0.0 5.0 0.00 0.00 0.00 47 925.9
20260506141554 33 360 3.0 5.0 0.00 0.00 0.00 49 926.0
20260506141018 33 360 1.0 6.0 0.00 0.00 0.00 50 925.8
20260506140520 32 360 4.0 6.0 0.00 0.00 0.00 50 926.0
20260506140100 32 360 3.0 6.0 0.00 0.00 0.00 49 926.0
20260506135516 31 360 4.0 6.0 0.00 0.00 0.00 50 925.9
20260506135016 31 360 4.0 6.0 0.00 0.00 0.00 51 926.1
20260506134549 31 360 3.0 5.0 0.00 0.00 0.00 53 926.3
20260506134017 30 360 3.0 5.0 0.00 0.00 0.00 55 926.1
20260506133519 30 360 4.0 5.0 0.00 0.00 0.00 57 926.0
20260506133045 29 360 3.0 5.0 0.00 0.00 0.00 58 926.2
20260506132515 29 360 3.0 5.0 0.00 0.00 0.00 58 926.2
20260506132022 29 360 3.0 5.0 0.00 0.00 0.00 57 926.3
20260506131546 28 360 3.0 5.0 0.00 0.00 0.00 56 926.2
20260506131021 28 360 2.0 5.0 0.00 0.00 0.00 55 926.2
20260506130520 28 360 1.0 3.0 0.00 0.00 0.00 56 926.2
20260506130048 28 360 1.0 3.0 0.00 0.00 0.00 58 926.3
20260506125514 27 360 0.0 3.0 0.00 0.00 0.00 57 926.4
20260506125017 27 360 0.0 2.0 0.00 0.00 0.00 57 926.3
20260506124548 26 360 1.0 2.0 0.00 0.00 0.00 58 926.4
20260506124015 26 360 0.0 3.0 0.00 0.00 0.00 59 926.5
20260506123515 26 360 0.0 3.0 0.00 0.00 0.00 59 926.7
20260506123049 25 360 0.0 2.0 0.00 0.00 0.00 57 926.7
20260506122511 25 360 0.0 2.0 0.00 0.00 0.00 56 926.6
20260506122010 25 360 0.0 2.0 0.00 0.00 0.00 55 926.7
20260506121531 25 360 0.0 0.0 0.00 0.00 0.00 56 926.7
20260506121011 25 360 0.0 0.0 0.00 0.00 0.00 57 926.7
20260506120514 25 360 0.0 0.0 0.00 0.00 0.00 56 926.8
20260506120034 25 360 0.0 0.0 0.00 0.00 0.00 55 926.7
20260506115510 26 360 0.0 0.0 0.00 0.00 0.00 55 926.9
20260506115013 26 360 0.0 2.0 0.00 0.00 0.00 55 926.8
20260506114542 26 360 0.0 2.0 0.00 0.00 0.00 54 926.9
20260506114012 26 360 0.0 2.0 0.00 0.00 0.00 56 926.8
20260506113511 26 360 1.0 3.0 0.00 0.00 0.00 55 927.0
20260506113035 26 360 1.0 4.0 0.00 0.00 0.00 56 926.9
20260506112512 26 360 2.0 4.0 0.00 0.00 0.00 58 927.1
20260506112010 26 360 1.0 2.0 0.00 0.00 0.00 58 927.1
20260506111531 27 360 1.0 2.0 0.00 0.00 0.00 61 927.2
20260506111010 26 360 1.0 2.0 0.00 0.00 0.00 60 927.2
20260506110511 26 360 1.0 2.0 0.00 0.00 0.00 56 927.3
20260506110034 27 360 0.0 2.0 0.00 0.00 0.00 59 927.4
20260506105514 27 360 0.0 3.0 0.00 0.00 0.00 59 927.5
20260506105011 26 360 2.0 3.0 0.00 0.00 0.00 58 927.3
20260506104528 26 360 0.0 4.0 0.00 0.00 0.00 55 927.5
20260506104010 27 360 1.0 4.0 0.00 0.00 0.00 53 927.4
20260506103512 28 360 1.0 3.0 0.00 0.00 0.00 56 927.7
20260506103035 28 360 2.0 3.0 0.00 0.00 0.00 56 927.7
20260506102510 28 360 0.0 2.0 0.00 0.00 0.00 55 927.6
20260506102012 28 360 0.0 3.0 0.00 0.00 0.00 53 927.6
20260506101537 29 360 1.0 3.0 0.00 0.00 0.00 53 927.7
20260506101015 29 360 1.0 2.0 0.00 0.00 0.00 54 927.8
20260506100511 29 360 0.0 2.0 0.00 0.00 0.00 55 927.8
20260506100038 28 360 1.0 2.0 0.00 0.00 0.00 55 927.9
20260506095515 28 360 0.0 2.0 0.00 0.00 0.00 54 927.8
20260506095011 28 360 1.0 3.0 0.00 0.00 0.00 52 927.9
20260506094531 28 360 1.0 4.0 0.00 0.00 0.00 52 927.9
20260506094011 28 360 2.0 4.0 0.00 0.00 0.00 52 928.0
20260506093511 27 360 1.0 3.0 0.00 0.00 0.00 53 928.2
20260506093100 27 360 1.0 3.0 0.00 0.00 0.00 52 928.3
20260506092512 27 360 1.0 4.0 0.00 0.00 0.00 52 928.2
20260506092013 26 360 2.0 4.0 0.00 0.00 0.00 52 928.3
20260506091536 26 360 2.0 4.0 0.00 0.00 0.00 51 928.2
20260506091011 26 360 2.0 4.0 0.00 0.00 0.00 51 928.2
20260506090510 26 360 2.0 6.0 0.00 0.00 0.00 50 928.3
20260506090039 26 360 4.0 6.0 0.00 0.00 0.00 50 928.4
20260506085509 26 360 2.0 4.0 0.00 0.00 0.00 50 928.4
20260506085011 27 360 2.0 4.0 0.00 0.00 0.00 49 928.5
20260506084532 27 360 3.0 6.0 0.00 0.00 0.00 49 928.6
20260506084013 27 360 4.0 6.0 0.00 0.00 0.00 49 928.4
20260506083512 27 360 5.0 8.0 0.00 0.00 0.00 49 928.5
20260506083037 27 360 5.0 8.0 0.00 0.00 0.00 49 928.5
20260506082515 27 360 5.0 6.0 0.00 0.00 0.00 49 928.6
20260506082013 26 360 4.0 8.0 0.00 0.00 0.00 49 928.6
20260506081531 27 360 4.0 8.0 0.00 0.00 0.00 48 928.7
20260506081013 27 360 6.0 10.0 0.00 0.00 0.00 46 928.7
20260506080510 29 360 8.0 10.0 0.00 0.00 0.00 45 928.8
20260506073514 29 360 10.0 12.0 0.00 0.00 0.00 45 929.0
20260506073033 29 360 11.0 12.0 0.00 0.00 0.00 46 929.1
20260506072512 27 360 8.0 10.0 0.00 0.00 0.00 48 929.2
20260506072015 27 360 5.0 6.0 0.00 0.00 0.00 48 929.3
20260506071535 26 360 5.0 6.0 0.00 0.00 0.00 48 929.3
20260506071011 26 360 5.0 6.0 0.00 0.00 0.00 46 929.3
20260506070509 27 360 5.0 9.0 0.00 0.00 0.00 44 929.4
20260506062511 30 360 7.0 9.0 0.00 0.00 0.00 43 929.4
20260506062014 30 360 8.0 9.0 0.00 0.00 0.00 42 929.4
20260506061542 30 360 8.0 9.0 0.00 0.00 0.00 43 929.4
20260506061010 29 360 8.0 9.0 0.00 0.00 0.00 44 929.5
20260506060511 29 360 5.0 9.0 0.00 0.00 0.00 43 929.4
20260506051011 28 360 4.0 6.0 0.00 0.00 0.00 43 929.5
20260506050512 28 360 4.0 5.0 0.00 0.00 0.00 41 929.6
20260506045014 31 360 3.0 5.0 0.00 0.00 0.00 36 929.8
20260506044536 33 360 2.0 4.0 0.00 0.00 0.00 35 929.6
20260506044011 33 360 1.0 3.0 0.00 0.00 0.00 35 929.8
20260506043515 33 360 1.0 2.0 0.00 0.00 0.00 35 930.0
20260506043035 33 360 1.0 3.0 0.00 0.00 0.00 35 929.5
20260506042511 33 360 2.0 3.0 0.00 0.00 0.00 34 929.7
20260506042012 34 360 2.0 3.0 0.00 0.00 0.00 34 929.8
20260506041531 34 360 1.0 3.0 0.00 0.00 0.00 34 929.7
20260506041010 34 360 2.0 3.0 0.00 0.00 0.00 34 929.6
20260506040512 34 360 2.0 3.0 0.00 0.00 0.00 33 929.6
20260506040031 34 360 2.0 3.0 0.00 0.00 0.00 33 929.6
20260506035512 35 360 1.0 3.0 0.00 0.00 0.00 32 929.9
20260506035013 36 360 1.0 3.0 0.00 0.00 0.00 30 929.8
20260506034532 37 360 0.0 3.0 0.00 0.00 0.00 30 929.7
20260506034011 37 360 0.0 0.0 0.00 0.00 0.00 29 929.5
20260506033512 38 360 0.0 5.0 0.00 0.00 0.00 28 929.6
20260506033035 39 360 2.0 5.0 0.00 0.00 0.00 27 929.5
20260506032513 39 360 2.0 4.0 0.00 0.00 0.00 28 929.4
20260506032012 40 360 1.0 4.0 0.00 0.00 0.00 27 929.4
20260506031533 40 360 2.0 4.0 0.00 0.00 0.00 27 929.4
20260506031012 40 360 3.0 5.0 0.00 0.00 0.00 27 929.4
20260506030512 41 360 4.0 5.0 0.00 0.00 0.00 27 929.5
20260506030035 41 360 3.0 5.0 0.00 0.00 0.00 26 929.3
20260506025513 41 360 4.0 5.0 0.00 0.00 0.00 26 929.0
20260506025010 42 360 4.0 5.0 0.00 0.00 0.00 25 929.1
20260506024532 43 360 4.0 5.0 0.00 0.00 0.00 25 929.0
20260506024011 44 360 4.0 6.0 0.00 0.00 0.00 24 929.0
20260506023511 44 360 4.0 6.0 0.00 0.00 0.00 24 929.2
20260506023048 45 360 3.0 6.0 0.00 0.00 0.00 23 929.1
20260506022510 45 360 4.0 9.0 0.00 0.00 0.00 23 929.2
20260506022011 45 360 6.0 11.0 0.00 0.00 0.00 23 929.1
20260506021533 46 360 8.0 11.0 0.00 0.00 0.00 22 929.0
20260506021010 46 360 4.0 11.0 0.00 0.00 0.00 22 929.1
20260506020512 46 360 5.0 13.0 0.00 0.00 0.00 22 929.1
20260506020056 46 360 9.0 15.0 0.00 0.00 0.00 22 929.2
20260506015513 47 360 12.0 16.0 0.00 0.00 0.00 22 929.1
20260506015013 47 360 12.0 16.0 0.00 0.00 0.00 21 929.1
20260506014531 47 360 12.0 15.0 0.00 0.00 0.00 21 929.2
20260506014014 47 360 12.0 18.0 0.00 0.00 0.00 21 929.3
20260506013518 48 360 14.0 19.0 0.00 0.00 0.00 20 929.1
20260506013032 48 360 12.0 19.0 0.00 0.00 0.00 20 929.1
20260506012512 48 360 13.0 17.0 0.00 0.00 0.00 20 929.1
20260506012014 48 360 13.0 17.0 0.00 0.00 0.00 20 929.1
20260506011534 48 360 13.0 18.0 0.00 0.00 0.00 20 929.0
20260506011013 48 360 14.0 20.0 0.00 0.00 0.00 20 928.8
20260506010511 48 360 15.0 20.0 0.00 0.00 0.00 19 928.8
20260506010031 49 360 11.0 16.0 0.00 0.00 0.00 18 929.1
20260506005517 49 360 11.0 22.0 0.00 0.00 0.00 18 929.0
20260506005012 49 360 15.0 22.0 0.00 0.00 0.00 18 929.2
20260506004540 49 360 11.0 18.0 0.00 0.00 0.00 18 928.9
20260506004014 49 360 13.0 25.0 0.00 0.00 0.00 17 929.0
20260506003513 50 360 20.0 25.0 0.00 0.00 0.00 17 928.5
20260506003032 49 360 10.0 26.0 0.00 0.00 0.00 17 928.9
20260506002512 49 360 17.0 29.0 0.00 0.00 0.00 18 928.8
20260506002011 50 360 23.0 29.0 0.00 0.00 0.00 17 928.3
20260506001544 49 360 15.0 22.0 0.00 0.00 0.00 18 929.0
20260506001015 49 360 15.0 25.0 0.00 0.00 0.00 17 928.8
20260506000513 49 360 19.0 26.0 0.00 0.00 0.00 18 928.9
20260506000048 48 360 13.0 27.0 0.00 0.00 0.00 16 928.9
20260505235516 49 360 22.0 27.0 0.00 0.00 0.00 16 928.8
20260505235013 48 360 16.0 27.0 0.00 0.00 0.00 18 929.0
20260505234534 48 360 18.0 29.0 0.00 0.00 0.00 17 928.9
20260505234013 49 360 20.0 35.0 0.00 0.00 0.00 18 929.0
20260505233512 50 360 21.0 31.0 0.00 0.00 0.00 18 928.9
20260505233029 50 360 19.0 28.0 0.00 0.00 0.00 17 929.0
20260505232512 50 360 19.0 28.0 0.00 0.00 0.00 19 929.0
20260505232013 49 360 18.0 25.0 0.00 0.00 0.00 18 928.8
20260505231530 48 360 20.0 32.0 0.00 0.00 0.00 19 928.7
20260505231010 49 360 27.0 32.0 0.00 0.00 0.00 18 928.6
20260505230510 49 360 15.0 25.0 0.00 0.00 0.00 17 929.1
20260505230042 49 360 18.0 28.0 0.00 0.00 0.00 19 929.0
20260505225512 49 360 19.0 28.0 0.00 0.00 0.00 20 928.9
20260505225016 49 360 19.0 27.0 0.00 0.00 0.00 19 928.9
20260505224536 49 360 21.0 29.0 0.00 0.00 0.00 19 928.8
20260505224012 49 360 22.0 29.0 0.00 0.00 0.00 20 928.9
20260505223513 48 360 16.0 22.0 0.00 0.00 0.00 21 929.1
20260505223036 48 360 15.0 26.0 0.00 0.00 0.00 22 929.2
20260505222515 48 360 17.0 26.0 0.00 0.00 0.00 28 928.9
20260505222015 47 360 12.0 24.0 0.00 0.00 0.00 37 929.3
20260505221534 48 360 15.0 22.0 0.00 0.00 0.00 36 929.3
20260505221012 48 360 15.0 24.0 0.00 0.00 0.00 39 929.4
20260505220510 47 360 17.0 27.0 0.00 0.00 0.00 38 929.3
20260505220034 48 360 20.0 31.0 0.00 0.00 0.00 37 929.3